Location: Columbia
(38.9520°N, 92.3340°W)
Time: 23:54:50
(UTC-06:00)

Cosmos 1603 - Visible Passes

Search period start: 06 February 2016 00:00
Search period end: 16 February 2016 00:00
Orbit: 829 x 861 km, 71.0° (Epoch: 06 February)

Date Brightness Start Highest point End Pass type
(mag) Time Alt. Az. Time Alt. Az. Time Alt. Az.
06 Feb 5.9 04:06:50 14° NNE 04:10:03 21° NE 04:14:19 10° ESE visible
06 Feb 3.8 05:48:58 10° NNW 05:54:33 57° WSW 06:00:05 10° S visible
06 Feb 3.9 18:55:30 10° S 19:00:59 49° ESE 19:05:13 17° NE visible
06 Feb 5.7 20:40:47 10° WSW 20:45:22 24° NW 20:47:12 21° NNW visible
07 Feb 5.9 03:54:11 18° NNE 03:56:08 21° NE 04:00:20 10° ESE visible
07 Feb 3.7 05:36:09 16° NNW 05:40:40 59° WSW 05:46:13 10° S visible
07 Feb 4.0 18:41:38 10° S 18:47:06 48° ESE 18:52:36 10° NE visible
07 Feb 5.7 20:26:48 10° WSW 20:31:27 25° NW 20:34:59 15° N visible
08 Feb 5.9 03:41:44 20° NE 03:42:13 20° NE 03:46:20 10° E visible
08 Feb 3.7 05:23:42 27° NW 05:26:48 61° WSW 05:32:20 10° S visible
08 Feb 4.0 18:27:46 10° S 18:33:13 46° ESE 18:38:41 10° NE visible
08 Feb 5.7 20:12:50 10° WSW 20:17:33 26° NW 20:22:17 10° N visible
09 Feb 6.1 03:29:26 19° ENE 03:29:26 19° ENE 03:32:20 10° E visible
09 Feb 3.6 05:11:25 46° NW 05:12:54 63° WSW 05:18:27 10° S visible
09 Feb 4.1 18:13:56 10° S 18:19:20 45° ESE 18:24:47 10° NE visible
09 Feb 5.7 19:58:52 10° WSW 20:03:38 26° WNW 20:08:26 10° N visible
10 Feb 6.4 03:17:17 13° E 03:17:17 13° E 03:18:21 10° E visible
10 Feb 3.6 04:59:16 64° SW 04:59:16 64° SW 05:04:36 10° S visible
10 Feb 4.1 18:00:05 10° S 18:05:27 43° ESE 18:10:51 10° NE visible
10 Feb 5.6 19:44:55 10° WSW 19:49:43 27° WNW 19:54:35 10° N visible
11 Feb 4.5 04:47:14 39° S 04:47:14 39° S 04:50:43 10° S visible
11 Feb 5.6 19:30:57 10° WSW 19:35:49 28° WNW 19:40:43 10° N visible
12 Feb 5.5 04:35:13 20° S 04:35:13 20° S 04:36:50 10° SSE visible
12 Feb 5.6 19:16:59 10° WSW 19:21:54 29° WNW 19:26:51 10° N visible
13 Feb 5.6 19:03:02 10° WSW 19:08:00 29° WNW 19:13:00 10° N visible
14 Feb 5.6 18:49:04 10° WSW 18:54:05 30° WNW 18:59:08 10° N visible
15 Feb 5.5 18:35:08 10° WSW 18:40:11 31° WNW 18:45:17 10° N visible
